Regional Weather Roundup
Issued by NWS Upton, NY

Current Version | Previous Version | Text Only | Print | Product List | Glossary Off
Versions: 1 2 3 4 5 6 7 8 9 10 11 12 13 14 15 16 17 18 19 20 21 22 23 24 25 26 27 28 29 30 31 32 33 34 35 36 37 38 39 40 41 42 43 44 45 46 47 48 49 50

061
ASUS41 KOKX 260208
RWROKX

REGIONAL WEATHER ROUNDUP
NATIONAL WEATHER SERVICE NEW YORK NY
1000 PM EDT SAT MAR 25 2017

NOTE: "FAIR" INDICATES FEW OR NO CLOUDS BELOW 12,000 FEET WITH NO
SIGNIFICANT WEATHER AND/OR OBSTRUCTIONS TO VISIBILITY.

NYZ071-072-176-178-NJZ106-104-260300-
NEW YORK CITY METRO AREA

CITY           SKY/WX    TMP DP  RH WIND       PRES   REMARKS
Central Park   CLOUDY    45  41  86 NE8       30.38S
Wall St Helipt CLOUDY    45  40  82 NE9       30.38R
LaGuardia APRT CLOUDY    45  39  79 NE8       30.36S
Kennedy INTL   CLOUDY    45  40  82 E8        30.37F
Breezy Point     N/A     41 N/A N/A E9          N/A
Newark/Liberty CLOUDY    46  41  82 SE5       30.36S
Teterboro      DRIZZLE   43  38  82 N10       30.37R
$$

NYZ177-179-078>081-260300-
LONG ISLAND NEW YORK

CITY           SKY/WX    TMP DP  RH WIND       PRES   REMARKS
Jones Beach      N/A     43 N/A N/A E6          N/A
Matinecock PT    N/A     41 N/A N/A E14         N/A
Farmingdale    CLOUDY    43  38  82 NE7       30.38R
MacArthur/ISP  CLOUDY    42  39  89 NE10      30.38R
Shirley        CLOUDY    42  38  85 N5        30.39R
Westhampton    CLOUDY    42  36  79 NE7       30.40R
East Hampton   CLOUDY    40  36  84 NE7       30.38R
Montauk          N/A     41  37  86 NE7       30.40R
$$

NYZ052-065-067-260300-
HUDSON VALLEY

CITY           SKY/WX    TMP DP  RH WIND       PRES   REMARKS
White Plains   CLOUDY    42  39  89 N5        30.36R
Newburgh       MOCLDY    36  34  93 NE7       30.41R WCI  30
Montgomery     MOCLDY    37  32  82 NE10      30.39R WCI  30
Poughkeepsie   CLOUDY    35  33  92 NE9       30.41R WCI  28
Albany         CLOUDY    36  28  73 N7        30.45R WCI  30
$$

NJZ001-105-106-008-010-013-015-019>022-104-260300-
NEW JERSEY

CITY           SKY/WX    TMP DP  RH WIND       PRES   REMARKS
Newark/Liberty CLOUDY    46  41  82 SE5       30.36S
Teterboro      DRIZZLE   43  38  82 N10       30.37R
Caldwell       CLOUDY    42  38  85 VRB5      30.38R
Somerville     CLOUDY    45  39  79 E5        30.35R
Linden         CLOUDY    45  39  80 CALM      30.37S
Sussex         CLOUDY    38  35  89 NE10      30.38R WCI  31
Andover          N/A     38  36  92 VRB7      30.36R WCI  33
Trenton        CLOUDY    45  39  79 E12       30.34R
Millville      CLOUDY    49  42  77 E12       30.29R
Atlantic City  CLOUDY    46  39  76 E12       30.32R
Wrightstown    PTCLDY    43  40  87 NE10      30.31R
Toms River     MOCLDY    43  41  93 NE10      30.36R
Belmar         MOCLDY    42  39  89 E12       30.36R
$$

PAZ047>061-062-071-260300-
EASTERN PENNSYLVANIA

CITY           SKY/WX    TMP DP  RH WIND       PRES   REMARKS
Philadelphia   MOCLDY    47  40  76 E12       30.32R
Allentown      CLOUDY    45  37  73 NE15G22   30.33R
Scranton       CLOUDY    43  41  93 CALM      30.32R
$$

CTZ002-004>006-009-010-012-RIZ004-006-007-MAZ004-011-015-260300-
SOUTHERN NEW ENGLAND
 IN CT

CITY           SKY/WX    TMP DP  RH WIND       PRES   REMARKS
Bradley INTL   CLOUDY    34  32  92 CALM      30.41R
Hartford       CLOUDY    36  34  92 N3        30.41R
Danbury        CLOUDY    40  38  93 NE6       30.39R
Wtrbury/Oxford CLOUDY    37  30  75 NE6       30.39R WCI  33
Bridgeport     MOCLDY    42  36  79 NE7       30.39R
Meriden        CLOUDY    39  34  82 CALM      30.41R
New Haven      CLOUDY    39  35  86 NE5       30.39R
Chester        NOT AVBL
Groton         CLOUDY    41  35  79 NE5       30.39R
Wilimantic     CLOUDY    37  35  92 CALM      30.41R

 IN RI

CITY           SKY/WX    TMP DP  RH WIND       PRES   REMARKS
Providence     CLOUDY    37  33  85 N3        30.40R
Block Island   CLOUDY    39  36  89 NE8       30.40R WCI  33
Westerly       CLOUDY    41  36  82 N7        30.40R
 IN MA

CITY           SKY/WX    TMP DP  RH WIND       PRES   REMARKS
Boston         CLOUDY    37  34  89 NW6       30.40R WCI  32
Worcester      CLEAR     33  29  85 N3        30.36R
Westfield      CLOUDY    31  31 100 CALM      30.41R FOG
Provincetown   CLOUDY    37  34  89 NW7       30.40R WCI  32
Nantucket      CLOUDY    36  32  85 N7        30.38R WCI  30
$$

ANZ330-335-338-340-345-350-353-355-260300-
COASTAL MARINE OBSERVATIONS


STATION/POSITION TIME  SKY/WX   TEMP    WIND        PRES    VSBY  WAVE
                                AIR SEA DIR/SP/G                  HT/PER
                 (UTC)          (F)     (DEG/KT/KT) (MB)    (MI)  (FT/S)
NY HARB ENTRANCE 0050            43 42   50/ 10/ 12 1027.9          3/ 8
20 S FIRE ISLAND 0050            42 40   60/ 12/ 14 1027.4          5/ 8
GREAT SOUTH BAY  NOT AVBL
23 SSW MONTAUK P 0050            40 43              1028.7          5/ 8
15 E BARNEGAT LI 0130               42                N/A           5/ 7
HUDSON CANYON    0050            43 45   80/ 19/ 23 1025.8          5/ 7
KINGS POINT      0130            44 39              1028.1
EXECUTION ROCKS  NOT AVBL
CENTRAL LI SOUND 0130            40      20/  6/  8   N/A           0
EASTERN LI SOUND NOT AVBL
ROBBINS REEF     0130            45      70/ 12/ 14 1028.4
$$


>>>>>>>>>>>>>>>>>>>>>>>>>>>> KEY <<<<<<<<<<<<<<<<<<<<<<<<<<<
>                                                          <
>     SKY/WX - Sky Condition/Present Weather               <
>     TMP    - Temperature in Fahrenheit                   <
>     DP     - Dew Point in Fahrenheit                     <
>     RH     - Relative Humidity in Percent                <
>     WIND   - Direction (from) and Speed in MPH           <
>     PRES   - Mean Sea Level Pressure (inches of Hg)      <
>     WCI    - Wind Chill Index                            <
>     VSB    - VISIBILITY IN MILES                         <
>     HX     - HEAT INDEX                                  <
>     TC     - TEMPERATURE IN CELSIUS                      <
>     VRB    - VARIABLE WIND DIRECTION                     <
>                                                          <
>>>>>>>>>>>>>>>>>>>>>>>>>>>> KEY <<<<<<<<<<<<<<<<<<<<<<<<<<<




USA.gov is the U.S. government's official web portal to all federal, state and local government web resources and services.